TJS-3 AKM (43917 NORAD) Tracking and Keplerian Element Data

This shows tracking and keplerian element data for the satellite.

Feedback or suggestion? Click here.




ElementValue
Catalog43917
NameTJS-3 AKM
Epoch Orbit145
Epoch Day142.61900407
Epoch Year2019
RAAN116.0736
Inclination0.0669
Eccentricity0.0001589
Argument of Perigee46.0388
Mean Anonmoly359.6983
Mean Motion1.00271502
Decay Rate4.9E-07
L11 43917U 18110C 19142.61900407 .00000049 00000-0 00000+0 0 9991
L22 43917 0.0669 116.0736 0001589 46.0388 359.6983 1.00271502 1454

Live tracking and technical data element details for TJS-3 AKM (NORAD 43917). TJS-3 AKM can be tracked NOW for your location showing map with azimuth and elevation plus other details from your city location.

Track the satellite on the map from your city or location and see movement details for azimuth, elevation, latitude, longitude, range, height, and movement on the map or in text.







IsCatalogInMostPopularTable: catalog: 43917, numindb: 100
Update: records affected: 1



GetName: 43917 TJS-3 AKM

Hit Count: updated at: Thu, 23 May 2019 14:56:54 GMT